[[{"header":{"parameterUnit":"m.s-1","parameterCategory":1,"la1":30.2991,"la2":30.254,"lo1":-89.0895,"lo2":-89.0444,"dy":0.0017,"dx":0.0017,"nx":28,"ny":28,"refTime":"2024-03-23T21:00:00:Z","depth":0,"parameterNumber":2,"parameterNumberName":"U-component_of_WINDS"},"data":[0,0,0,0,0,0,0,0,0,0,0,0,0,0,0,0,0,0,0,0,0,0,0,0,0,0,0,0,0,0,0,0,0,0,0,0,0,0,0,0,0,0,0,0,0,0,0,0,0,0,0,0,0,0,0,0,0,0,-6.8553,-6.8554,0,-6.8635,-6.8636,-6.8637,-6.8643,-6.8642,-6.8641,-6.8641,-6.8719,-6.8722,-6.8725,0,0,0,0,0,0,0,0,0,0,0,0,0,-6.8398,-6.8401,-6.8553,-6.8554,-6.8555,-6.8635,-6.8636,-6.8637,-6.8643,-6.8642,-6.8641,-6.864,-6.8718,-6.8721,-6.8725,0,0,0,0,0,0,0,0,0,0,0,0,0,-6.8471,-6.8402,-6.8553,-6.8568,-6.857,-6.8634,-6.8636,-6.8637,-6.8644,-6.8642,-6.8641,-6.864,-6.8717,-6.8721,-6.8725,-6.8779,0,0,-6.8739,-6.8741,0,0,0,0,0,0,0,0,-6.8467,-6.8477,-6.8565,-6.8567,-6.857,-6.8628,-6.861,-6.8684,-6.8644,-6.8616,-6.8641,-6.8639,-6.8689,-6.8696,-6.8714,-6.8782,-6.8786,-6.8739,-6.8742,-6.8744,-6.8745,0,0,0,0,0,0,0,-6.8462,-6.8473,-6.8585,-6.8566,-6.8569,-6.8569,-6.8578,-6.8624,-6.8659,-6.8618,-6.8619,-6.8628,-6.869,-6.871,-6.8716,-6.8787,-6.8739,-6.8743,-6.8746,-6.8747,-6.8902,-6.8904,0,0,0,0,0,0,-6.8455,-6.8469,-6.8583,-6.8588,-6.8514,-6.8573,-6.8583,-6.861,-6.8658,-6.8664,-6.8629,-6.8628,-6.8703,-6.8711,-6.8719,-6.8783,-6.8744,-6.8748,-6.875,-6.8901,-6.8903,-6.8904,0,0,0,0,0,0,-6.8451,-6.8465,-6.8579,-6.8529,-6.8543,-6.8577,-6.8608,-6.8613,-6.8632,-6.8667,-6.8673,-6.8643,-6.8702,-6.8712,-6.8764,-6.8786,-6.875,-6.8754,-6.8899,-6.8902,-6.8904,-6.8913,0,0,0,0,0,0,-6.8447,-6.8463,-6.8485,-6.8529,-6.8546,-6.8624,-6.8609,-6.8615,-6.864,-6.8639,-6.8681,-6.8687,-6.8702,-6.8757,-6.8768,-6.8791,-6.8757,-6.8897,-6.89,-6.8903,-6.8911,-6.8915,-6.8919,0,0,0,0,0,-6.8441,-6.8483,-6.8486,-6.8499,-6.8574,-6.8626,-6.8635,-6.8653,-6.8642,-6.8663,-6.8686,-6.8686,-6.8783,-6.8763,-6.8775,-6.8799,-6.8896,-6.8899,-6.8903,-6.8909,-6.8914,-6.8919,0,0,0,0,0,0,-6.8438,-6.8489,-6.8493,-6.855,-6.8584,-6.8627,-6.8653,-6.8658,-6.8694,-6.8692,-6.8711,-6.8721,-6.8771,-6.8791,-6.8768,-6.8853,-6.8838,-6.8844,-6.8838,-6.8844,-6.8848,-6.8841,-6.8761,0,0,0,0,0,-6.8445,-6.8484,-6.8526,-6.8573,-6.859,-6.8619,-6.8642,-6.8654,-6.8688,-6.8702,-6.8728,-6.8761,-6.8798,-6.8823,-6.8859,-6.8915,-6.8923,-6.8938,-6.8942,-6.8945,-6.8949,-6.8979,-6.8986,-6.8916,-6.8916,-6.8916,0,0,-6.8457,-6.849,-6.8513,-6.8573,-6.86,-6.8639,-6.8631,-6.8672,-6.8701,-6.8708,-6.8758,-6.8779,-6.8816,-6.887,-6.8895,-6.8887,-6.8971,-6.8949,-6.8952,-6.8954,-6.8983,-6.899,-6.8996,-6.8918,-6.8918,-6.8917,0,0,-6.85,-6.853,-6.8571,-6.86,-6.8642,-6.8662,-6.8672,-6.8715,-6.8729,-6.8781,-6.8787,-6.8821,-6.8886,-6.8912,-6.8934,-6.8989,-6.899,-6.9,-6.9021,-6.905,-6.9055,-6.906,-6.9078,-6.9084,-6.9005,-6.9005,-6.9005,0,-6.8509,-6.857,-6.8592,-6.8634,-6.8659,-6.867,-6.8712,-6.8738,-6.8789,-6.8806,-6.8798,-6.888,-6.8906,-6.8966,-6.8979,-6.8997,-6.9008,-6.8994,-6.9053,-6.9058,-6.9063,-6.908,-6.9087,-6.9006,-6.9006,-6.9006,-6.9005,0,-6.8579,-6.8621,-6.865,-6.8701,-6.873,-6.8772,-6.8799,-6.8825,-6.8835,-6.8855,-6.8907,-6.8939,-6.8982,-6.8998,-6.9007,-6.9059,-6.9053,-6.9049,-6.9033,-6.907,-6.9087,-6.9094,-6.9007,-6.9007,-6.9006,-6.9006,0,0,-6.8619,-6.8684,-6.8694,-6.8717,-6.8766,-6.8798,-6.884,-6.8884,-6.8906,-6.8942,-6.8976,-6.9032,-6.9029,-6.9054,-6.9066,-6.9092,-6.9132,-6.9085,-6.9086,-6.9091,-6.919,-6.9191,-6.9198,-6.9135,-6.9136,-6.9137,-6.9186,0,-6.8665,-6.8742,-6.8764,-6.8827,-6.8866,-6.8878,-6.8914,-6.8947,-6.8968,-6.9002,-6.9024,-6.9063,-6.9057,-6.9072,-6.9099,-6.9122,-6.9152,-6.9119,-6.9165,-6.9166,-6.9152,-6.9207,-6.9208,-6.9252,-6.9193,-6.9194,-6.9195,0,-6.8729,-6.8768,-6.8836,-6.888,-6.8897,-6.893,-6.8972,-6.9006,-6.9043,-6.9056,-6.9086,-6.9096,-6.9139,-6.9124,-6.9182,-6.916,-6.918,-6.9195,-6.9197,-6.9199,-6.918,-6.9209,-6.9267,-6.9273,-6.9206,-6.9205,-6.9204,0,-6.8749,-6.8818,-6.8868,-6.8888,-6.8941,-6.8964,-6.8987,-6.9023,-6.9049,-6.9086,-6.9102,-6.9144,-6.9165,-6.9197,-6.9218,-6.9205,-6.9274,-6.9261,-6.9284,-6.9284,-6.9296,-6.9294,-6.9356,-6.9313,-6.9313,-6.9313,-6.9313,0,-6.8797,-6.8837,-6.8878,-6.8908,-6.8954,-6.8979,-6.9023,-6.9046,-6.9079,-6.9113,-6.9126,-6.9157,-6.9185,-6.9219,-6.9236,-6.9282,-6.9292,-6.9302,-6.9306,-6.93,-6.9298,-6.9311,-6.9307,-6.9315,-6.9315,-6.9314,-6.9314,0,-6.8825,-6.8854,-6.8909,-6.8956,-6.8969,-6.9,-6.9039,-6.9069,-6.9091,-6.9134,-6.9145,-6.9179,-6.9221,-6.9246,-6.9298,-6.931,-6.9359,-6.9363,-6.9347,-6.9348,-6.9369,-6.9366,-6.9439,-6.9449,-6.9402,-6.9403,-6.9403,0,-6.8853,-6.8884,-6.8936,-6.896,-6.8984,-6.9023,-6.905,-6.9076,-6.9103,-6.9149,-6.9173,-6.9216,-6.9251,-6.9317,-6.9346,-6.9386,-6.9389,-6.9412,-6.9394,-6.9387,-6.9387,-6.9383,-6.9386,-6.9413,-6.9414,-6.9414,-6.9415,0,-6.8898,-6.8911,-6.895,-6.8994,-6.9026,-6.9061,-6.9096,-6.9115,-6.9147,-6.9177,-6.9221,-6.9249,-6.9303,-6.9345,-6.9388,-6.941,-6.9417,-6.942,-6.9428,-6.942,-6.9409,-6.9413,-6.9352,-6.9418,-6.9417,-6.9417,-6.9417,-6.9417,-6.8925,-6.8954,-6.8994,-6.9037,-6.9067,-6.91,-6.913,-6.9157,-6.9194,-6.9242,-6.9255,-6.93,-6.9338,-6.9397,-6.942,-6.9455,-6.9451,-6.9462,-6.9465,-6.9466,-6.9466,-6.9406,-6.9463,-6.9463,-6.9463,-6.9463,-6.9463,0,-6.8969,-6.8996,-6.9036,-6.9086,-6.9119,-6.9126,-6.9166,-6.9192,-6.9233,-6.9268,-6.9304,-6.9354,-6.9395,-6.9428,-6.947,-6.9492,-6.9496,-6.9502,-6.9499,-6.9504,-6.9468,-6.9456,-6.9498,-6.9498,-6.9498,-6.9498,-6.9498,-6.9498,-6.8996,-6.9044,-6.9063,-6.9126,-6.9153,-6.9199,-6.9221,-6.9251,-6.9279,-6.9335,-6.937,-6.9392,-6.9426,-6.9471,-6.9509,-6.9518,-6.9532,-6.9537,-6.9545,-6.951,-6.9506,-6.9503,-6.9492,-6.954,-6.954,-6.9578,-6.9579,-6.9579]},{"header":{"parameterUnit":"m.s-1","parameterCategory":1,"la1":30.2991,"la2":30.254,"lo1":-89.0895,"lo2":-89.0444,"dy":0.0017,"dx":0.0017,"nx":28,"ny":28,"refTime":"2024-03-23T21:00:00:Z","depth":0,"parameterNumber":3,"parameterNumberName":"V-component_of_WINDS"},"data":[0,0,0,0,0,0,0,0,0,0,0,0,0,0,0,0,0,0,0,0,0,0,0,0,0,0,0,0,0,0,0,0,0,0,0,0,0,0,0,0,0,0,0,0,0,0,0,0,0,0,0,0,0,0,0,0,0,0,5.019,5.0189,0,5.0161,5.016,5.016,5.0134,5.0134,5.0134,5.0134,5.0099,5.0098,5.0097,0,0,0,0,0,0,0,0,0,0,0,0,0,5.0221,5.0221,5.019,5.0189,5.0189,5.0161,5.016,5.016,5.0134,5.0134,5.0134,5.0133,5.0099,5.0098,5.0097,0,0,0,0,0,0,0,0,0,0,0,0,0,5.0201,5.0221,5.019,5.0173,5.0171,5.0161,5.016,5.016,5.0134,5.0134,5.0134,5.0133,5.0099,5.0098,5.0097,5.0099,0,0,5.0094,5.0094,0,0,0,0,0,0,0,0,5.0203,5.02,5.0176,5.0174,5.0172,5.0151,5.0159,5.0139,5.0135,5.0148,5.0134,5.0133,5.0116,5.0114,5.0109,5.0098,5.0096,5.0094,5.0093,5.0093,5.0093,0,0,0,0,0,0,0,5.0204,5.0201,5.0178,5.0176,5.0173,5.0166,5.0163,5.0155,5.0135,5.0147,5.0145,5.0142,5.0115,5.011,5.0108,5.0096,5.0094,5.0093,5.0092,5.0092,5.0088,5.0089,0,0,0,0,0,0,5.0208,5.0203,5.0179,5.0177,5.0187,5.0166,5.0162,5.0158,5.0135,5.0131,5.0143,5.0141,5.0112,5.0109,5.0106,5.011,5.0093,5.0092,5.0091,5.0088,5.0088,5.0089,0,0,0,0,0,0,5.0209,5.0207,5.018,5.019,5.0186,5.0166,5.0161,5.0158,5.0153,5.0132,5.0127,5.0142,5.0111,5.0108,5.0102,5.0108,5.0092,5.0091,5.0087,5.0088,5.0088,5.0115,0,0,0,0,0,0,5.021,5.0207,5.0208,5.019,5.0185,5.0177,5.0162,5.0157,5.0152,5.0149,5.0129,5.0125,5.0111,5.0104,5.0101,5.0106,5.009,5.0086,5.0087,5.0088,5.0114,5.0117,5.0119,0,0,0,0,0,5.0211,5.0215,5.0208,5.0205,5.0186,5.0178,5.0175,5.0159,5.0152,5.0153,5.014,5.0126,5.0108,5.0104,5.01,5.0105,5.0086,5.0087,5.0088,5.0112,5.0116,5.0119,0,0,0,0,0,0,5.0231,5.0212,5.0204,5.0202,5.0192,5.0173,5.0173,5.0163,5.0154,5.0152,5.0131,5.0127,5.0124,5.0114,5.011,5.0108,5.0095,5.0096,5.0115,5.0118,5.0121,5.0124,5.0089,0,0,0,0,0,5.0236,5.0232,5.0214,5.0214,5.021,5.0193,5.0188,5.0178,5.0166,5.0161,5.0147,5.0135,5.0127,5.0122,5.0113,5.0112,5.0108,5.0114,5.0117,5.0119,5.012,5.0122,5.0125,5.0092,5.0092,5.0092,0,0,5.0244,5.0233,5.0231,5.0218,5.0209,5.0205,5.0189,5.0184,5.0181,5.0159,5.0155,5.0145,5.013,5.0128,5.0126,5.0119,5.0129,5.0121,5.0123,5.0122,5.0123,5.0127,5.0129,5.0093,5.0093,5.0093,0,0,5.0257,5.0248,5.0248,5.0241,5.0229,5.0218,5.0218,5.0202,5.0196,5.0191,5.0176,5.0171,5.0157,5.0148,5.0142,5.0156,5.0144,5.0154,5.0169,5.0171,5.0173,5.0175,5.0183,5.0185,5.0155,5.0155,5.0155,0,5.0269,5.0263,5.0249,5.0247,5.0242,5.0226,5.0226,5.0219,5.0203,5.02,5.0193,5.0178,5.0166,5.0164,5.0168,5.0163,5.0163,5.0156,5.0174,5.0176,5.0178,5.0185,5.0187,5.0156,5.0156,5.0156,5.0156,0,5.0279,5.0275,5.0277,5.0266,5.0261,5.026,5.0246,5.0243,5.0234,5.0224,5.0221,5.0208,5.0197,5.0196,5.0185,5.0192,5.0189,5.0178,5.0165,5.0183,5.0189,5.0191,5.0158,5.0158,5.0157,5.0157,0,0,5.0301,5.0286,5.0287,5.0283,5.027,5.0267,5.0266,5.0259,5.0257,5.0248,5.0248,5.0238,5.023,5.0223,5.0211,5.0213,5.0229,5.0202,5.0202,5.0209,5.0239,5.0248,5.0251,5.0221,5.0221,5.0221,5.0241,0,5.0313,5.0312,5.0301,5.0303,5.0301,5.0287,5.0287,5.0279,5.0271,5.0267,5.0257,5.0252,5.024,5.0237,5.0238,5.0227,5.0235,5.0225,5.022,5.022,5.0226,5.0253,5.0262,5.028,5.0243,5.0243,5.0243,0,5.0326,5.0322,5.0325,5.0316,5.0314,5.0314,5.0308,5.0305,5.0297,5.0291,5.0286,5.0274,5.0273,5.0261,5.026,5.0254,5.0252,5.0246,5.0247,5.0246,5.0233,5.0255,5.0286,5.0289,5.0246,5.0246,5.0246,0,5.0345,5.0339,5.0341,5.0338,5.0327,5.0328,5.0323,5.0314,5.0312,5.0306,5.0305,5.0298,5.0295,5.029,5.0278,5.027,5.0279,5.0265,5.0275,5.0275,5.0277,5.0277,5.0309,5.0274,5.0274,5.0274,5.0274,0,5.036,5.0362,5.035,5.0351,5.0354,5.0342,5.0345,5.0339,5.0332,5.0332,5.0319,5.0319,5.0302,5.03,5.029,5.0292,5.029,5.0286,5.0283,5.0288,5.0288,5.0286,5.0285,5.0274,5.0274,5.0274,5.0274,0,5.038,5.0372,5.0373,5.0364,5.0362,5.0365,5.0357,5.0358,5.0351,5.0351,5.035,5.0338,5.0336,5.0324,5.0317,5.0311,5.0317,5.0311,5.032,5.0319,5.033,5.0329,5.0362,5.0366,5.0327,5.0327,5.0328,0,5.039,5.0393,5.0386,5.0386,5.0383,5.0382,5.0381,5.037,5.0369,5.0363,5.0365,5.0362,5.0359,5.0356,5.0346,5.0343,5.0337,5.0349,5.0336,5.0342,5.034,5.034,5.0342,5.0352,5.0352,5.0353,5.0353,0,5.041,5.0407,5.0406,5.0406,5.0405,5.0403,5.04,5.0401,5.0389,5.0389,5.0388,5.0387,5.0383,5.0381,5.0376,5.0371,5.036,5.0358,5.036,5.0364,5.0371,5.037,5.0329,5.0356,5.0356,5.0356,5.0356,5.0355,5.0426,5.0429,5.0426,5.0427,5.0425,5.0424,5.0425,5.042,5.042,5.0418,5.0411,5.0412,5.0407,5.04,5.0396,5.0396,5.039,5.0393,5.0393,5.0395,5.0398,5.0371,5.0395,5.0395,5.0395,5.0395,5.0395,0,5.0447,5.0446,5.0447,5.0445,5.0447,5.044,5.0437,5.0439,5.044,5.0437,5.0437,5.0437,5.0437,5.0429,5.0427,5.0429,5.0425,5.0429,5.0429,5.0429,5.0403,5.0402,5.0433,5.0433,5.0433,5.0433,5.0433,5.0433,5.0458,5.0464,5.0461,5.0466,5.0464,5.0467,5.0467,5.0466,5.0464,5.0467,5.0467,5.0463,5.0459,5.0458,5.0457,5.0455,5.0455,5.0462,5.0458,5.0434,5.043,5.0427,5.0426,5.0462,5.0462,5.0485,5.0485,5.0485]}]]